Home > Time Zones > World Clock > Weather > Spain > Jaén > Past weeks

Flag for Spain Weather past 2 weeks in Jaén, Spain

Now
86 °F

Sunny.


Feels Like: 83 °F
Forecast: 67 / 100 °F
Wind: No wind

Location: Granada / Aeropuerto

Current Time: Jun 30, 2015 at 11:06:15 AM

Latest Report: Jun 30, 2015 at 10:30 AM


Visibility: 10 mi

Pressure: 30.04 "Hg

Humidity: 25%

Dew point: 46 °F

Location of JaénLocation

Historic Weather in Jaén — Graph

°F

Jaén temperature yesterday

Maximum temperature yesterday: 106 °F (at 2:30 PM)
Minimum temperature yesterday: 64 °F (at 6:30 AM)
Average temperature yesterday: 92 °F

Past Weeks' High & Low Weather Summary

 TemperatureHumidityPressure
High106 °F (Jun 28, 4:00 PM)94% (Jun 16, 7:00 AM)30.24 "Hg (Jun 16, 7:00 AM)
Low50 °F (Jun 16, 7:00 AM)9% (Jun 29, 6:00 PM)29.98 "Hg (Jun 19, 5:30 PM)
Average80 °F34%30.10 "Hg
* Reported Jun 15 10:00 AM — Jun 30 10:00 AM, Jaén, Weather by CustomWeather, © 2015

Note: Actual official high and low records may vary slightly from our data, if they occured in-between our weather recording intervals... More about our weather records

Advertising

Jaén weather history for previous 24 hours

 ConditionsComfort  
Time TempWeatherWind HumidityBarometerVisibility
10:00 AM
Tue, Jun 30
82 °FSunny.1 mph28%30.07 "Hg10 mi
9:30 AM81 °FSunny.No wind28%30.07 "Hg10 mi
9:00 AM77 °FSunny.No wind36%30.07 "Hg10 mi
8:30 AM72 °FSunny.1 mph41%30.07 "Hg10 mi
8:00 AM68 °FSunny.1 mph46%30.07 "Hg10 mi
7:30 AM66 °FClear.1 mph49%30.07 "Hg10 mi
7:00 AM66 °FClear.1 mph49%30.07 "Hg10 mi
6:30 AM64 °FClear.No wind52%30.07 "Hg10 mi
6:00 AM66 °FClear.No wind49%30.07 "Hg10 mi
11:00 PM
Mon, Jun 29
90 °FPassing clouds.7 mph18%30.07 "HgN/A
10:30 PM91 °FSunny.6 mph17%30.07 "Hg10 mi
10:00 PM91 °FSunny.1 mph18%30.04 "Hg10 mi
9:30 PM93 °FPassing clouds.3 mph17%30.04 "HgN/A
9:00 PM97 °FPassing clouds.7 mph14%30.04 "HgN/A
8:30 PM99 °FPassing clouds.10 mph14%30.04 "HgN/A
7:30 PM102 °FPassing clouds.14 mph11%30.04 "HgN/A
7:00 PM104 °FSunny.14 mph11%30.04 "Hg10 mi
6:30 PM104 °FPassing clouds.14 mph11%30.04 "HgN/A
6:00 PM106 °FPassing clouds.14 mph9%30.04 "HgN/A
5:30 PM104 °FPassing clouds.13 mph11%30.04 "HgN/A
5:00 PM106 °FPassing clouds.12 mph11%30.07 "HgN/A
4:30 PM106 °FPassing clouds.15 mph11%30.07 "HgN/A
4:00 PM106 °FPassing clouds.15 mph11%30.07 "HgN/A
3:30 PM106 °FPassing clouds.15 mph11%30.07 "HgN/A
3:00 PM106 °FPassing clouds.14 mph11%30.09 "HgN/A
2:30 PM106 °FPassing clouds.15 mph11%30.09 "HgN/A
2:00 PM104 °FPassing clouds.15 mph12%30.09 "HgN/A
1:30 PM102 °FPassing clouds.12 mph14%30.09 "HgN/A
1:00 PM100 °FSunny.3 mph14%30.09 "Hg10 mi
12:30 PM99 °FPassing clouds.5 mph19%30.09 "HgN/A
12:00 PM93 °FSunny.1 mph24%30.12 "Hg10 mi
11:30 AM90 °FSunny.1 mph24%30.12 "Hg10 mi
11:00 AM86 °FSunny.No wind31%30.12 "Hg10 mi
Weather by CustomWeather, © 2015

See weather overviewHow to use our weather pages